Allen Army Airfield Delta Junction Ft Greely US
ICAO: PABI
IATA:
Category: Medium
Scheduled Services:

Elevation: 1291 ft
TransAlt. 18000 ft.

Airport Communications:
ASOS:135.65
ATIS:132.075
TWEB:114.9
ANCHORAGE CNTR:135.3
CTAF:122.9
FAIRBANKS RDO:122.2
FORT GREELY GND:118.225
FT GREELY RANGE CON:38.3
BASE OPS:122.9
TWR:125.325

PABI Zoom In..

Runways:

(A) RW 01 length 9000 ft width 150 ft
---- / hdg 7

(B) RW 07 length 4077 ft width 90 ft
---- / hdg 69

(C) RW 10 length 6115 ft width 150 ft
ILS 111.10 / hdg 102

(D) RW 19 length 9000 ft width 150 ft
---- / hdg 187

(E) RW 25 length 4077 ft width 90 ft
---- / hdg 249

(F) RW 28 length 6115 ft width 150 ft
---- / hdg 282

Location; PABI
Day. 20 / Time. 09.53 Zulu
* Altimeter: 29.39
* Temperature: -02° c. -28.4°f.
* Wind from: 270° Speed 07 kn.
Dewpoint: -11° c.
Visibility: 10 Statute Miles.
Clouds: Broken 7500 ft.

PABI 200953Z AUTO 27007KT 10SM BKN075 M02/M11 A2939 RMK AO2 SLP971 T10221111 TSNO


Wind From 270°
Speed 07 kn.

  YouTube Music Video
 
jpsmedia.com for Web Design  worldairports.se 2018   terms of use